Location: Chippewa Lake
(41.0698°N, 81.9010°W)
Time: 02:13:53
(UTC+00:00)

Resurs 01 Rocket - Pass Details

Date: 09 May 2021
Orbit: 634 x 644 km, 97.9° (Epoch: 24 June)

Event Time Altitude Azimuth Distance (km) Brightness Sun altitude
Exits shadow 02:59:56 15° 222° (SW) 1,728 3.7 -22.7°
Maximum altitude 03:02:28 24° 265° (W) 1,345 3.6 -23.0°
Drops below altitude 10° 03:06:04 10° 319° (NW) 2,046 5.3 -23.4°
Sets 03:08:40 0° 334° (NNW) 2,959 6.4 -23.6°
